EW2910 Weather Reports


time (UTC)temp
F
wind
direction
speed
knots
gust
knots
rain 1hr
in
rain 24hr
in
rain mn
in
humidity
%
barometer
mb
20260510031604 75 0 0.0 0.0 0.00 0.00 0.00 88 1015.1
20260510024603 76 0 0.0 5.2 0.00 0.00 0.00 87 1015.2
20260510023100 76 34 2.6 6.1 0.00 0.00 0.00 87 1015.0
20260510021646 77 50 4.3 7.8 0.00 0.00 0.00 86 1014.7
20260510014601 78 51 3.5 9.6 0.00 0.00 0.00 84 1014.6
20260510013114 78 56 4.3 7.0 0.00 0.00 0.00 83 1014.3
20260510011600 78 54 5.2 8.7 0.00 0.00 0.00 82 1014.2
20260510004601 79 14 4.3 9.6 0.00 0.00 0.00 81 1013.6
20260510003100 80 44 4.3 13.0 0.00 0.00 0.00 80 1013.3
20260510001601 81 29 7.0 11.3 0.00 0.00 0.00 78 1013.2
20260510000100 83 355 5.2 13.0 0.00 0.00 0.00 74 1012.9
20260509234559 87 319 0.9 3.5 0.00 0.00 0.00 53 1012.4
20260509233102 87 225 0.9 6.1 0.00 0.00 0.00 54 1012.2
20260509231604 88 272 0.9 5.2 0.00 0.00 0.00 55 1012.1
20260509230100 89 0 1.7 6.1 0.00 0.00 0.00 55 1011.9
20260509224559 90 0 0.0 5.2 0.00 0.00 0.00 54 1011.7
20260509223102 92 0 0.9 7.8 0.00 0.00 0.00 52 1011.6
20260509221559 93 250 0.9 7.8 0.00 0.00 0.00 51 1011.3
20260509220100 93 238 2.6 7.0 0.00 0.00 0.00 51 1011.2
20260509214601 93 267 1.7 9.6 0.00 0.00 0.00 51 1011.2
20260509213115 94 238 2.6 7.8 0.00 0.00 0.00 50 1011.0
20260509211605 94 237 0.9 6.1 0.00 0.00 0.00 51 1011.0
20260509210105 96 259 1.7 7.8 0.00 0.00 0.00 48 1010.9
20260509204600 95 236 2.6 7.0 0.00 0.00 0.00 48 1010.8
20260509203103 95 255 1.7 12.2 0.00 0.00 0.00 49 1010.9
20260509201607 95 233 2.6 7.8 0.00 0.00 0.00 48 1011.0
20260509200104 95 206 3.5 7.8 0.00 0.00 0.00 49 1011.1
20260509194602 95 232 3.5 8.7 0.00 0.00 0.00 47 1011.3
20260509193059 95 266 3.5 10.4 0.00 0.00 0.00 47 1011.4
20260509191609 95 298 3.5 11.3 0.00 0.00 0.00 46 1011.6
20260509190100 94 176 2.6 13.9 0.00 0.00 0.00 48 1011.7
20260509184610 96 209 1.7 7.0 0.00 0.00 0.00 47 1011.9
20260509183101 95 227 7.0 14.8 0.00 0.00 0.00 48 1012.0
20260509181607 93 232 2.6 12.2 0.00 0.00 0.00 51 1012.1
20260509180115 94 257 5.2 9.6 0.00 0.00 0.00 49 1012.3
20260509174600 94 274 2.6 11.3 0.00 0.00 0.00 48 1012.4
20260509173107 94 219 4.3 10.4 0.00 0.00 0.00 47 1012.4
20260509171601 94 225 3.5 10.4 0.00 0.00 0.00 50 1012.7
20260509170106 93 288 2.6 9.6 0.00 0.00 0.00 55 1012.7
20260509164600 92 212 4.3 8.7 0.00 0.00 0.00 54 1013.0
20260509163104 91 243 2.6 9.6 0.00 0.00 0.00 56 1013.2
20260509161606 90 221 4.3 11.3 0.00 0.00 0.00 55 1013.2
20260509154559 89 226 2.6 7.0 0.00 0.00 0.00 61 1013.4
20260509153103 88 150 2.6 7.0 0.00 0.00 0.00 65 1013.6
20260509151557 87 0 2.6 6.1 0.00 0.00 0.00 68 1013.7
20260509150058 86 260 1.7 6.1 0.00 0.00 0.00 68 1013.8
20260509144557 84 224 2.6 7.8 0.00 0.00 0.00 74 1013.8
20260509143059 83 207 1.7 7.0 0.00 0.00 0.00 75 1013.9
20260509141557 81 189 0.0 5.2 0.00 0.00 0.00 78 1013.9
20260509140108 80 286 0.9 3.5 0.00 0.00 0.00 83 1013.7
20260509134556 79 96 0.0 3.5 0.00 0.00 0.00 83 1013.9
20260509133058 77 232 0.9 2.6 0.00 0.00 0.00 87 1014.0
20260509131559 75 123 1.7 4.3 0.00 0.00 0.00 91 1014.1
20260509130108 73 68 1.7 5.2 0.00 0.00 0.00 94 1014.1
20260509124559 73 15 2.6 5.2 0.00 0.00 0.00 95 1014.2
20260509123057 73 49 1.7 2.6 0.00 0.00 0.00 95 1014.0
20260509121601 73 12 1.7 3.5 0.00 0.00 0.00 96 1014.0
20260509120058 73 8 0.0 2.6 0.00 0.00 0.00 96 1013.9
20260509114559 72 0 0.0 0.0 0.00 0.00 0.00 96 1013.5
20260509113058 71 0 0.0 0.0 0.00 0.00 0.00 96 1013.3
20260509111559 71 0 0.0 0.0 0.00 0.00 0.00 96 1013.0
20260509110057 70 0 0.0 0.0 0.00 0.00 0.00 96 1012.9
20260509104603 70 0 0.0 0.0 0.00 0.00 0.00 96 1012.5
20260509103106 70 0 0.0 0.0 0.00 0.00 0.00 96 1012.5
20260509101620 70 0 0.0 0.0 0.00 0.00 0.00 96 1012.7
20260509094602 70 0 0.0 0.0 0.00 0.00 0.00 96 1012.4
20260509093100 70 0 0.0 0.0 0.00 0.00 0.00 96 1012.6
20260509091559 71 0 0.0 0.0 0.00 0.00 0.00 95 1012.7
20260509090108 71 0 0.0 0.0 0.00 0.00 0.00 95 1012.7
20260509084605 71 0 0.0 0.0 0.00 0.00 0.00 95 1012.7
20260509083111 72 0 0.0 3.5 0.00 0.00 0.00 95 1012.9
20260509081559 72 0 0.0 0.9 0.00 0.00 0.00 95 1013.0
20260509080100 72 0 0.0 0.0 0.00 0.00 0.00 94 1013.0
20260509074612 72 251 0.0 0.9 0.00 0.00 0.00 94 1012.9
20260509073108 72 0 0.0 1.7 0.00 0.00 0.00 94 1012.9
20260509071602 72 288 0.9 2.6 0.00 0.00 0.00 94 1013.0
20260509070059 72 0 0.0 1.7 0.00 0.00 0.00 93 1013.4
20260509064601 73 0 0.0 0.9 0.00 0.00 0.00 93 1013.6
20260509063104 73 0 0.0 0.0 0.00 0.00 0.00 92 1013.5
20260509061558 73 0 0.0 1.7 0.00 0.00 0.00 92 1013.8
20260509060117 73 0 0.0 0.9 0.00 0.00 0.00 92 1014.0
20260509054556 73 0 0.0 0.0 0.00 0.00 0.00 92 1014.2
20260509053114 74 0 0.0 1.7 0.00 0.00 0.00 91 1014.2
20260509051609 74 0 0.0 2.6 0.00 0.00 0.00 91 1014.4
20260509050106 75 0 0.0 0.0 0.00 0.00 0.00 92 1014.5
20260509044604 75 0 0.0 2.6 0.00 0.00 0.00 92 1014.5
20260509043100 76 334 0.9 3.5 0.00 0.00 0.00 91 1014.6
20260509041558 76 345 0.9 3.5 0.00 0.00 0.00 91 1014.6
20260509040109 76 20 2.6 4.3 0.00 0.00 0.00 90 1014.7
20260509034603 76 326 0.9 5.2 0.00 0.00 0.00 90 1014.6
20260509033131 77 347 3.5 7.0 0.00 0.00 0.00 89 1014.6